Location: Monteux
(44.0348°N, 4.9972°E)
Time: 14:24:15
(UTC+00:00)

IRS-1C Rocket - Pass Details

Date: 30 November 2020
Orbit: 800 x 806 km, 99.0° (Epoch: 26 January)

Event Time Altitude Azimuth Distance (km) Brightness Sun altitude
Rises 18:02:28 0° 169° (SSE) 3,306 7.3 -20.8°
Reaches altitude 10° 18:04:47 10° 171° (S) 2,380 6.5 -21.2°
Maximum altitude 18:10:03 75° 256° (WSW) 838 4.2 -22.2°
Drops below altitude 10° 18:15:21 10° 342° (NNW) 2,397 6.6 -23.1°
Sets 18:17:42 0° 345° (NNW) 3,331 7.4 -23.5°
